Satellite: NOAA-14
Catalog number: 23455
Epoch time: 08219.79707979
Element set: 0256
Inclination: 098.9433 deg
RA of node: 292.0631 deg
Eccentricity: 0.0009375
Arg of perigee: 007.3270 deg
Mean anomaly: 352.8022 deg
Mean motion: 14.13745623 rev/day
Decay rate: -1.86e-06 rev/day^2
Epoch rev: 70150
Checksum: 311
Satellite: SICH-1
Catalog number: 23657
Epoch time: 08219.80027198
Element set: 0459
Inclination: 082.5250 deg
RA of node: 048.8299 deg
Eccentricity: 0.0022898
Arg of perigee: 317.0923 deg
Mean anomaly: 042.8457 deg
Mean motion: 14.81595695 rev/day
Decay rate: 1.07e-06 rev/day^2
Epoch rev: 69771
Checksum: 344
Satellite: NOAA-15
Catalog number: 25338
Epoch time: 08219.57151617
Element set: 0574
Inclination: 098.5567 deg
RA of node: 210.1559 deg
Eccentricity: 0.0009476
Arg of perigee: 253.9395 deg
Mean anomaly: 106.0732 deg
Mean motion: 14.24719474 rev/day
Decay rate: 1.71e-06 rev/day^2
Epoch rev: 53197
Checksum: 327
Satellite: RESURS
Catalog number: 25394
Epoch time: 08219.97479948
Element set: 0998
Inclination: 098.3833 deg
RA of node: 261.6113 deg
Eccentricity: 0.0002500
Arg of perigee: 055.4955 deg
Mean anomaly: 304.6460 deg
Mean motion: 14.24166622 rev/day
Decay rate: 4.0e-08 rev/day^2
Epoch rev: 52367
Checksum: 315
Satellite: FENGYUN1
Catalog number: 25730
Epoch time: 08219.94819991
Element set: 0559
Inclination: 098.7232 deg
RA of node: 194.0143 deg
Eccentricity: 0.0022181
Arg of perigee: 028.1256 deg
Mean anomaly: 332.1107 deg
Mean motion: 14.07742693 rev/day
Decay rate: 1.75e-06 rev/day^2
Epoch rev: 47610
Checksum: 298
Satellite: OKEAN-0
Catalog number: 25860
Epoch time: 08219.50246712
Element set: 0439
Inclination: 097.7530 deg
RA of node: 207.8310 deg
Eccentricity: 0.0001797
Arg of perigee: 084.2277 deg
Mean anomaly: 275.9131 deg
Mean motion: 14.73531046 rev/day
Decay rate: -1.0e-08 rev/day^2
Epoch rev: 48680
Checksum: 292
Satellite: NOAA-16
Catalog number: 26536
Epoch time: 08219.71335213
Element set: 0046
Inclination: 099.1606 deg
RA of node: 210.0049 deg
Eccentricity: 0.0011534
Arg of perigee: 084.0934 deg
Mean anomaly: 276.1514 deg
Mean motion: 14.12491585 rev/day
Decay rate: -2.43e-06 rev/day^2
Epoch rev: 40590
Checksum: 277
Satellite: NOAA-17
Catalog number: 27453
Epoch time: 08219.92441354
Element set: 0042
Inclination: 098.5305 deg
RA of node: 283.0737 deg
Eccentricity: 0.0011096
Arg of perigee: 324.8115 deg
Mean anomaly: 035.2315 deg
Mean motion: 14.23993519 rev/day
Decay rate: 1.71e-06 rev/day^2
Epoch rev: 31802
Checksum: 286
Satellite: NOAA-18
Catalog number: 28654
Epoch time: 08219.81886197
Element set: 0533
Inclination: 098.8673 deg
RA of node: 160.1300 deg
Eccentricity: 0.0014561
Arg of perigee: 167.0102 deg
Mean anomaly: 193.1448 deg
Mean motion: 14.11184142 rev/day
Decay rate: 3.87e-06 rev/day^2
Epoch rev: 16561
Checksum: 303
/EX
SB KEPS @ AMSAT $ORB08220.M
Orbital Elements 08220.MISC
HR AMSAT ORBITAL ELEMENTS FOR MANNED AND MISCELLANEOUS SATELLITES
FROM WA5QGD FORT WORTH,TX August 7, 2008
Send Subscribe/unsubscribe to KEPS at
http://www.amsat.org/mailman/listinfo/keps
BID: ORB08220.M
TO ALL RADIO AMATEURS BT
Satellite: HUBBLE
Catalog number: 20580
Epoch time: 08219.76471762
Element set: 194
Inclination: 028.4697 deg
RA of node: 353.3330 deg
Eccentricity: 0.0003866
Arg of perigee: 198.8395 deg
Mean anomaly: 161.2052 deg
Mean motion: 15.00397323 rev/day
Decay rate: 2.67e-06 rev/day^2
Epoch rev: 80258
Checksum: 308
Satellite: PO-34
Catalog number: 25520
Epoch time: 08219.97814887
Element set: 0060
Inclination: 028.4596 deg
RA of node: 198.7335 deg
Eccentricity: 0.0005468
Arg of perigee: 121.5689 deg
Mean anomaly: 238.5439 deg
Mean motion: 15.17215276 rev/day
Decay rate: 2.41e-06 rev/day^2
Epoch rev: 54088
Checksum: 337
Satellite: ISS
Catalog number: 25544
Epoch time: 08219.81347098
Element set: 0001
Inclination: 051.6417 deg
RA of node: 116.2666 deg
Eccentricity: 0.0010257
Arg of perigee: 040.2184 deg
Mean anomaly: 004.5083 deg
Mean motion: 15.72844703 rev/day
Decay rate: 7.326e-05 rev/day^2
Epoch rev: 55650
Checksum: 275
Satellite: CO-58
Catalog number: 28895
Epoch time: 08219.70941827
Element set: 0090
Inclination: 098.0924 deg
RA of node: 112.5096 deg
Eccentricity: 0.0016723
Arg of perigee: 250.6202 deg
Mean anomaly: 109.3194 deg
Mean motion: 14.59687433 rev/day
Decay rate: 6.0e-07 rev/day^2
Epoch rev: 14785
Checksum: 323
Satellite: NCUBE2
Catalog number: 28897
Epoch time: 08219.25678095
Element set: 0619
Inclination: 098.0892 deg
RA of node: 111.9931 deg
Eccentricity: 0.0016105
Arg of perigee: 254.2183 deg
Mean anomaly: 105.7234 deg
Mean motion: 14.59859278 rev/day
Decay rate: 6.9e-07 rev/day^2
Epoch rev: 14007
Checksum: 330
Satellite: FALCON
Catalog number: 30776
Epoch time: 08219.39452734
Element set: 0378
Inclination: 035.4332 deg
RA of node: 208.9899 deg
Eccentricity: 0.0000886
Arg of perigee: 033.1793 deg
Mean anomaly: 326.8979 deg
Mean motion: 15.03028728 rev/day
Decay rate: 1.49e-06 rev/day^2
Epoch rev: 07770
Checksum: 335
Satellite: MAST
Catalog number: 31126
Epoch time: 08219.22158777
Element set: 391
Inclination: 098.0359 deg
RA of node: 281.6495 deg
Eccentricity: 0.0095037
Arg of perigee: 176.2534 deg
Mean anomaly: 183.9399 deg
Mean motion: 14.53439485 rev/day
Decay rate: 1.89e-06 rev/day^2
Epoch rev: 6928
Checksum: 346
Satellite: CAPE1
Catalog number: 31130
Epoch time: 08219.70494360
Element set: 0383
Inclination: 098.0356 deg
RA of node: 281.0070 deg
Eccentricity: 0.0103030
Arg of perigee: 177.8882 deg
Mean anomaly: 182.2762 deg
Mean motion: 14.51983329 rev/day
Decay rate: 1.74e-06 rev/day^2
Epoch rev: 06905
Checksum: 287
Satellite: CUTE1-7
Catalog number: 32785
Epoch time: 08219.17097512
Element set: 0125
Inclination: 097.9888 deg
RA of node: 278.9620 deg
Eccentricity: 0.0014653
Arg of perigee: 338.8338 deg
Mean anomaly: 021.2264 deg
Mean motion: 14.81380835 rev/day
Decay rate: 5.5e-07 rev/day^2
Epoch rev: 01480
Checksum: 323
Satellite: COMPASS
Catalog number: 32787
Epoch time: 08219.30245178
Element set: 0113
Inclination: 097.9865 deg
RA of node: 279.0449 deg
Eccentricity: 0.0015559
Arg of perigee: 339.2937 deg
Mean anomaly: 020.7645 deg
Mean motion: 14.81442219 rev/day
Decay rate: -3.0e-08 rev/day^2
Epoch rev: 01482
Checksum: 312
Satellite: AAUSAT2
Catalog number: 32788
Epoch time: 08219.16004805
Element set: 0114
Inclination: 097.9871 deg
RA of node: 278.9189 deg
Eccentricity: 0.0014675
Arg of perigee: 342.9097 deg
Mean anomaly: 017.1618 deg
Mean motion: 14.81553184 rev/day
Decay rate: 2.59e-06 rev/day^2
Epoch rev: 01480
Checksum: 324
Satellite: DO-64
Catalog number: 32789
Epoch time: 08219.91131365
Element set: 0130
Inclination: 097.9897 deg
RA of node: 279.6876 deg
Eccentricity: 0.0015105
Arg of perigee: 336.7911 deg
Mean anomaly: 023.2617 deg
Mean motion: 14.81442365 rev/day
Decay rate: -3.1e-07 rev/day^2
Epoch rev: 01491
Checksum: 318
Satellite: SEEDS
Catalog number: 32791
Epoch time: 08219.24438952
Element set: 0112
Inclination: 097.9885 deg
RA of node: 279.0014 deg
Eccentricity: 0.0015869
Arg of perigee: 337.5003 deg
Mean anomaly: 022.5505 deg
Mean motion: 14.81298323 rev/day
Decay rate: 2.1e-07 rev/day^2
Epoch rev: 01478
Checksum: 295
Satellite: CANX-2
Catalog number: 32797
Epoch time: 08218.60726649
Element set: 0058
Inclination: 097.9941 deg
RA of node: 278.4755 deg
Eccentricity: 0.0015646
Arg of perigee: 346.4586 deg
Mean anomaly: 013.6197 deg
Mean motion: 14.81907328 rev/day
Decay rate: 1.601e-05 rev/day^2
Epoch rev: 01340
Checksum: 332
Satellite: RS-30
Catalog number: 32953
Epoch time: 08219.71614026
Element set: 0077
Inclination: 082.5001 deg
RA of node: 092.1723 deg
Eccentricity: 0.0019106
Arg of perigee: 141.4712 deg
Mean anomaly: 218.7735 deg
Mean motion: 12.42996797 rev/day
Decay rate: 1.0e-07 rev/day^2
Epoch rev: 00932
Checksum: 278
/EX
More information about the Keps
mailing list